{"data":{"norad_id":63432,"intl_designator":"2025-068A","name":"TIANPING-3A 02","alt_names":[],"object_type":"PAYLOAD","status":"ACTIVE","operator":null,"country":"PRC","launch_date":"2025-04-03","launch_site_code":"TAISC","launch_vehicle":null,"mission":null,"orbit_class":"UNKNOWN","rcs_meters":null,"size_class":null,"mass_kg":null,"dimensions":null,"purposes":[],"wikipedia_slug":null,"has_3d_model":false,"image_url":null,"decayed_at":null,"tle_current":{"epoch":"2026-09-22T23:20:48.719040Z","epoch_age_seconds":92590,"freshness":"FRESH","line1":"1 63432U 25068A   26265.97278610  .00001615  00000+0  13139-3 0  9992","line2":"2 63432  42.9996 249.7492 0235896 111.4368 251.1803 14.84762217 79911","mean_motion":14.84762217,"eccentricity":0.0235896,"inclination_deg":42.9996,"raan_deg":249.7492,"arg_perigee_deg":111.4368,"mean_anomaly_deg":251.1803,"bstar":0.00013139,"rev_number":7991,"period_min":96.985226557661,"perigee_km":449.38276798062,"apogee_km":779.28187663156,"semimajor_km":6992.4693223061,"source":"CELESTRAK","updated_at":"2026-09-23T09:00:22.083091Z"}}}